Home   Weather   Abu Dhabi   Past weeks

Flag for United Arab Emirates Past Weather in Abu Dhabi, Abu Dhabi, United Arab Emirates — Yesterday and Last 2 Weeks

Now
95 °F

Clear.


Feels Like: 116 °F
Forecast: 95 / 105 °F
Wind: 5 mph from Northwest

Location: Abu Dhabi Bateen Airport

Current Time: Jul 22, 2017 at 2:52:20 am

Latest Report: Jul 22, 2017 at 2:00 am


Visibility: 10 mi

Pressure: 29.42 "Hg

Humidity: 63%

Dew Point: 81 °F

Location of Abu DhabiLocation

Past Weather in Abu Dhabi — Graph

°F

Abu Dhabi Temperature Yesterday

Maximum temperature yesterday: 109 °F (at 12:00 pm)
Minimum temperature yesterday: 91 °F (at 4:00 am)
Average temperature yesterday: 99 °F

High & Low Weather Summary for the Past Weeks

 TemperatureHumidityPressure
High118 °F (Jul 7, 2:00 pm)84% (Jul 14, 2:00 am)29.53 "Hg (Jul 14, 2:00 am)
Low90 °F (Jul 7, 2:00 am)9% (Jul 7, 2:00 pm)29.30 "Hg (Jul 7, 4:00 pm)
Average101 °F42%29.42 "Hg
* Reported Jul 7 1:00 am — Jul 22 1:00 am, Abu Dhabi. Weather by CustomWeather, © 2017

Note: Actual official high and low records may vary slightly from our data, if they occured in-between our weather recording intervals... More about our weather records

Advertising

Abu Dhabi Weather History for the Previous 24 Hours

Scroll right to see more
 ConditionsComfort  
Time TempWeatherWind HumidityBarometerVisibility
1:00 am
Sat, Jul 22
95 °FPassing clouds.3 mph60%29.42 "HgN/A
12:00 am95 °FClear.5 mph63%29.42 "Hg10 mi
11:00 pm
Fri, Jul 21
95 °FClear.6 mph67%29.45 "Hg6 mi
10:00 pm95 °FClear.8 mph75%29.45 "Hg5 mi
9:00 pm95 °FClear.8 mph75%29.42 "Hg4 mi
8:00 pm95 °FClear.10 mph71%29.42 "Hg4 mi
7:00 pm97 °FClear.13 mph63%29.39 "Hg4 mi
6:00 pm100 °FClear.10 mph53%29.36 "Hg4 mi
5:00 pm106 °FClear.9 mph38%29.36 "Hg4 mi
4:00 pm106 °FClear.12 mph34%29.39 "Hg4 mi
3:00 pm109 °FClear.12 mph28%29.39 "Hg4 mi
2:00 pm109 °FDuststorm.10 mph30%29.39 "Hg3 mi
1:00 pm109 °FDuststorm.7 mph25%29.42 "Hg3 mi
12:00 pm109 °FDuststorm.3 mph25%29.45 "Hg3 mi
11:00 am106 °FDuststorm.5 mph30%29.45 "Hg3 mi
10:00 am102 °FDuststorm.8 mph31%29.45 "Hg3 mi
9:00 am100 °FClear.5 mph29%29.45 "Hg5 mi
8:00 am97 °FClear.5 mph32%29.45 "Hg5 mi
7:00 am93 °FPassing clouds.3 mph36%29.42 "HgN/A
6:00 am93 °FSunny.10 mph39%29.42 "Hg10 mi
5:00 am91 °FPassing clouds.8 mph59%29.39 "HgN/A
4:00 am91 °FPassing clouds.7 mph71%29.39 "HgN/A
3:00 am93 °FClear.9 mph63%29.36 "Hg10 mi
2:00 am95 °FPassing clouds.7 mph56%29.36 "HgN/A
Weather by CustomWeather, © 2017

See weather overviewHow to use our weather pages